owner,sensor,date,latitude,longitude,vertical_datum,mass_concentration_of_oxygen_in_sea_water,qcFlag 
DISL,ioos:station:DISL:DISL:1,2009-01-01T06:30:00Z,30.2513,-88.0778,5.892,10.05,1111122 
DISL,ioos:station:DISL:DISL:1,2009-01-01T07:00:00Z,30.2513,-88.0778,5.763,10.08,1111122 
DISL,ioos:station:DISL:DISL:1,2009-01-01T07:30:00Z,30.2513,-88.0778,6.097,10.07,1111122 
DISL,ioos:station:DISL:DISL:1,2009-01-01T08:00:00Z,30.2513,-88.0778,6.082,10.01,1111122 
DISL,ioos:station:DISL:DISL:1,2009-01-01T08:30:00Z,30.2513,-88.0778,6.022,10.05,1111122 
DISL,ioos:station:DISL:DISL:1,2009-01-01T09:00:00Z,30.2513,-88.0778,6.003,10.01,1111122 
DISL,ioos:station:DISL:DISL:1,2009-01-01T09:30:00Z,30.2513,-88.0778,6.357,9.93,1111122 
DISL,ioos:station:DISL:DISL:1,2009-01-01T10:00:00Z,30.2513,-88.0778,5.832,9.89,1111122 
DISL,ioos:station:DISL:DISL:1,2009-01-01T10:30:00Z,30.2513,-88.0778,5.818,9.89,1111122 
DISL,ioos:station:DISL:DISL:1,2009-01-01T11:00:00Z,30.2513,-88.0778,5.713,9.96,1111122 
DISL,ioos:station:DISL:DISL:1,2009-01-01T11:30:00Z,30.2513,-88.0778,5.933,9.95,1111122 
DISL,ioos:station:DISL:DISL:1,2009-01-01T12:00:00Z,30.2513,-88.0778,5.832,9.95,1111122 
DISL,ioos:station:DISL:DISL:1,2009-01-01T12:30:00Z,30.2513,-88.0778,5.687,9.92,1111122 
DISL,ioos:station:DISL:DISL:1,2009-01-01T13:00:00Z,30.2513,-88.0778,5.649,9.89,1111122 
DISL,ioos:station:DISL:DISL:1,2009-01-01T13:30:00Z,30.2513,-88.0778,5.649,9.92,1111122 
DISL,ioos:station:DISL:DISL:1,2009-01-01T14:00:00Z,30.2513,-88.0778,5.621,9.88,1111122 
DISL,ioos:station:DISL:DISL:1,2009-01-01T14:30:00Z,30.2513,-88.0778,5.702,9.85,1111122 
DISL,ioos:station:DISL:DISL:1,2009-01-01T15:00:00Z,30.2513,-88.0778,5.693,9.74,1111122 
DISL,ioos:station:DISL:DISL:1,2009-01-01T15:30:00Z,30.2513,-88.0778,5.684,9.68,1111122 
DISL,ioos:station:DISL:DISL:1,2009-01-01T16:00:00Z,30.2513,-88.0778,5.717,9.43,1111122 
DISL,ioos:station:DISL:DISL:1,2009-01-01T16:30:00Z,30.2513,-88.0778,5.672,9.1,1111122 
DISL,ioos:station:DISL:DISL:1,2009-01-01T17:00:00Z,30.2513,-88.0778,5.622,9.29,1111122 
DISL,ioos:station:DISL:DISL:1,2009-01-01T17:30:00Z,30.2513,-88.0778,5.715,9.2,1111122 
DISL,ioos:station:DISL:DISL:1,2009-01-01T18:00:00Z,30.2513,-88.0778,5.695,8.79,1111122 
DISL,ioos:station:DISL:DISL:1,2009-01-01T18:30:00Z,30.2513,-88.0778,5.744,8.45,1111122 
DISL,ioos:station:DISL:DISL:1,2009-01-01T19:00:00Z,30.2513,-88.0778,5.746,8.38,1111122 
DISL,ioos:station:DISL:DISL:1,2009-01-01T19:30:00Z,30.2513,-88.0778,5.758,8.42,1111122 
DISL,ioos:station:DISL:DISL:1,2009-01-01T20:00:00Z,30.2513,-88.0778,5.785,8.42,1111122 
DISL,ioos:station:DISL:DISL:1,2009-01-01T20:30:00Z,30.2513,-88.0778,5.858,8.4,1111122 
DISL,ioos:station:DISL:DISL:1,2009-01-01T21:00:00Z,30.2513,-88.0778,5.879,8.42,1111122 
DISL,ioos:station:DISL:DISL:1,2009-01-01T21:30:00Z,30.2513,-88.0778,5.96,8.46,1111122 
DISL,ioos:station:DISL:DISL:1,2009-01-01T22:00:00Z,30.2513,-88.0778,5.977,8.73,1111122 
DISL,ioos:station:DISL:DISL:1,2009-01-01T22:30:00Z,30.2513,-88.0778,6.029,8.91,1111122 
DISL,ioos:station:DISL:DISL:1,2009-01-01T23:00:00Z,30.2513,-88.0778,6.107,8.49,1111122 
DISL,ioos:station:DISL:DISL:1,2009-01-01T23:30:00Z,30.2513,-88.0778,6.143,8.51,1111122 
DISL,ioos:station:DISL:DISL:1,2009-01-02T00:00:00Z,30.2513,-88.0778,6.188,9.03,1111122 
DISL,ioos:station:DISL:DISL:1,2009-01-02T00:30:00Z,30.2513,-88.0778,6.232,8.92,1111122 
DISL,ioos:station:DISL:DISL:1,2009-01-02T01:00:00Z,30.2513,-88.0778,6.266,8.86,1111122 
DISL,ioos:station:DISL:DISL:1,2009-01-02T01:30:00Z,30.2513,-88.0778,6.25,8.74,1111122 
DISL,ioos:station:DISL:DISL:1,2009-01-02T02:00:00Z,30.2513,-88.0778,6.329,7.87,1111122 
DISL,ioos:station:DISL:DISL:1,2009-01-02T02:30:00Z,30.2513,-88.0778,6.34,7.43,1111122 
DISL,ioos:station:DISL:DISL:1,2009-01-02T03:00:00Z,30.2513,-88.0778,6.387,7.49,1111122 
DISL,ioos:station:DISL:DISL:1,2009-01-02T03:30:00Z,30.2513,-88.0778,6.438,7.43,1111122 
DISL,ioos:station:DISL:DISL:1,2009-01-02T04:00:00Z,30.2513,-88.0778,6.448,7.34,1111122 
DISL,ioos:station:DISL:DISL:1,2009-01-02T04:30:00Z,30.2513,-88.0778,6.502,7.47,1111122 
DISL,ioos:station:DISL:DISL:1,2009-01-02T05:00:00Z,30.2513,-88.0778,6.539,7.51,1111122 
DISL,ioos:station:DISL:DISL:1,2009-01-02T05:30:00Z,30.2513,-88.0778,6.563,7.91,1111122 
DISL,ioos:station:DISL:DISL:1,2009-01-02T06:00:00Z,30.2513,-88.0778,6.616,7.81,1111122 
DISL,ioos:station:DISL:DISL:1,2009-01-02T06:30:00Z,30.2513,-88.0778,6.649,7.48,1111122 
DISL,ioos:station:DISL:DISL:1,2009-01-02T07:00:00Z,30.2513,-88.0778,6.685,8.08,1111122 
DISL,ioos:station:DISL:DISL:1,2009-01-02T07:30:00Z,30.2513,-88.0778,6.616,8.38,1111122 
DISL,ioos:station:DISL:DISL:1,2009-01-02T08:00:00Z,30.2513,-88.0778,6.54,8.46,1111122 
DISL,ioos:station:DISL:DISL:1,2009-01-02T08:30:00Z,30.2513,-88.0778,6.577,8.65,1111122 
DISL,ioos:station:DISL:DISL:1,2009-01-02T09:00:00Z,30.2513,-88.0778,6.515,8.65,1111122 
DISL,ioos:station:DISL:DISL:1,2009-01-02T09:30:00Z,30.2513,-88.0778,6.52,8.72,1111122 
DISL,ioos:station:DISL:DISL:1,2009-01-02T10:00:00Z,30.2513,-88.0778,6.362,8.83,1111122 
DISL,ioos:station:DISL:DISL:1,2009-01-02T10:30:00Z,30.2513,-88.0778,6.352,9.06,1111122 
DISL,ioos:station:DISL:DISL:1,2009-01-02T11:00:00Z,30.2513,-88.0778,6.304,9.17,1111122 
DISL,ioos:station:DISL:DISL:1,2009-01-02T11:30:00Z,30.2513,-88.0778,6.24,9.25,1111122 
DISL,ioos:station:DISL:DISL:1,2009-01-02T12:00:00Z,30.2513,-88.0778,6.206,9.36,1111122 
DISL,ioos:station:DISL:DISL:1,2009-01-02T12:30:00Z,30.2513,-88.0778,6.164,9.4,1111122 
DISL,ioos:station:DISL:DISL:1,2009-01-02T13:00:00Z,30.2513,-88.0778,6.121,9.46,1111122 
DISL,ioos:station:DISL:DISL:1,2009-01-02T13:30:00Z,30.2513,-88.0778,6.026,9.44,1111122 
DISL,ioos:station:DISL:DISL:1,2009-01-02T14:00:00Z,30.2513,-88.0778,6.029,9.54,1111122 
DISL,ioos:station:DISL:DISL:1,2009-01-02T14:30:00Z,30.2513,-88.0778,6.015,9.44,1111122 
DISL,ioos:station:DISL:DISL:1,2009-01-02T15:00:00Z,30.2513,-88.0778,5.952,9.32,1111122 
DISL,ioos:station:DISL:DISL:1,2009-01-02T15:30:00Z,30.2513,-88.0778,5.973,9.3,1111122 
DISL,ioos:station:DISL:DISL:1,2009-01-02T16:00:00Z,30.2513,-88.0778,6.071,9.29,1111122 
DISL,ioos:station:DISL:DISL:1,2009-01-02T16:30:00Z,30.2513,-88.0778,5.993,9.36,1111122 
DISL,ioos:station:DISL:DISL:1,2009-01-02T17:00:00Z,30.2513,-88.0778,5.953,9.33,1111122 
DISL,ioos:station:DISL:DISL:1,2009-01-02T17:30:00Z,30.2513,-88.0778,5.981,9.24,1111122 
DISL,ioos:station:DISL:DISL:1,2009-01-02T18:00:00Z,30.2513,-88.0778,6.0,9.28,1111122 
DISL,ioos:station:DISL:DISL:1,2009-01-02T18:30:00Z,30.2513,-88.0778,6.054,9.2,1111122 
DISL,ioos:station:DISL:DISL:1,2009-01-02T19:00:00Z,30.2513,-88.0778,6.063,9.07,1111122 
DISL,ioos:station:DISL:DISL:1,2009-01-02T19:30:00Z,30.2513,-88.0778,6.08,8.6,1111122 
DISL,ioos:station:DISL:DISL:1,2009-01-02T20:00:00Z,30.2513,-88.0778,6.098,8.79,1111122 
DISL,ioos:station:DISL:DISL:1,2009-01-02T20:30:00Z,30.2513,-88.0778,6.167,9.15,1111122 
DISL,ioos:station:DISL:DISL:1,2009-01-02T21:00:00Z,30.2513,-88.0778,6.151,9.31,1111122 
DISL,ioos:station:DISL:DISL:1,2009-01-02T21:30:00Z,30.2513,-88.0778,6.243,9.38,1111122 
DISL,ioos:station:DISL:DISL:1,2009-01-02T22:00:00Z,30.2513,-88.0778,6.253,9.27,1111122 
DISL,ioos:station:DISL:DISL:1,2009-01-02T22:30:00Z,30.2513,-88.0778,6.267,9.56,1111122 
DISL,ioos:station:DISL:DISL:1,2009-01-02T23:00:00Z,30.2513,-88.0778,6.273,9.48,1111122 
DISL,ioos:station:DISL:DISL:1,2009-01-02T23:30:00Z,30.2513,-88.0778,6.296,10.26,1111122 
DISL,ioos:station:DISL:DISL:1,2009-01-03T00:00:00Z,30.2513,-88.0778,6.316,10.09,1111122 
DISL,ioos:station:DISL:DISL:1,2009-01-03T00:30:00Z,30.2513,-88.0778,6.343,9.87,1111122 
DISL,ioos:station:DISL:DISL:1,2009-01-03T01:00:00Z,30.2513,-88.0778,6.322,9.97,1111122 
DISL,ioos:station:DISL:DISL:1,2009-01-03T01:30:00Z,30.2513,-88.0778,6.291,9.57,1111122 
DISL,ioos:station:DISL:DISL:1,2009-01-03T02:00:00Z,30.2513,-88.0778,6.288,9.63,1111122 
DISL,ioos:station:DISL:DISL:1,2009-01-03T02:30:00Z,30.2513,-88.0778,6.306,9.71,1111122 
DISL,ioos:station:DISL:DISL:1,2009-01-03T03:00:00Z,30.2513,-88.0778,6.271,9.99,1111122 
DISL,ioos:station:DISL:DISL:1,2009-01-03T03:30:00Z,30.2513,-88.0778,6.253,9.83,1111122 
DISL,ioos:station:DISL:DISL:1,2009-01-03T04:00:00Z,30.2513,-88.0778,6.228,9.63,1111122 
DISL,ioos:station:DISL:DISL:1,2009-01-03T04:30:00Z,30.2513,-88.0778,6.236,9.32,1111122 
DISL,ioos:station:DISL:DISL:1,2009-01-03T05:00:00Z,30.2513,-88.0778,6.249,9.47,1111122 
DISL,ioos:station:DISL:DISL:1,2009-01-03T05:30:00Z,30.2513,-88.0778,6.226,9.43,1111122 
DISL,ioos:station:DISL:DISL:1,2009-01-03T06:00:00Z,30.2513,-88.0778,6.2,9.17,1111122 
DISL,ioos:station:DISL:DISL:1,2009-01-03T06:30:00Z,30.2513,-88.0778,6.198,9.34,1111122 
DISL,ioos:station:DISL:DISL:1,2009-01-03T07:00:00Z,30.2513,-88.0778,6.214,9.1,1111122 
DISL,ioos:station:DISL:DISL:1,2009-01-03T07:30:00Z,30.2513,-88.0778,6.228,9.41,1111122 
DISL,ioos:station:DISL:DISL:1,2009-01-03T08:00:00Z,30.2513,-88.0778,6.215,9.68,1111122 
DISL,ioos:station:DISL:DISL:1,2009-01-03T08:30:00Z,30.2513,-88.0778,6.191,9.7,1111122 
DISL,ioos:station:DISL:DISL:1,2009-01-03T09:00:00Z,30.2513,-88.0778,6.24,9.46,1111122 
DISL,ioos:station:DISL:DISL:1,2009-01-03T09:30:00Z,30.2513,-88.0778,6.199,9.52,1111122 
DISL,ioos:station:DISL:DISL:1,2009-01-03T10:00:00Z,30.2513,-88.0778,6.171,9.32,1111122 
DISL,ioos:station:DISL:DISL:1,2009-01-03T10:30:00Z,30.2513,-88.0778,6.146,9.72,1111122 
DISL,ioos:station:DISL:DISL:1,2009-01-03T11:00:00Z,30.2513,-88.0778,6.141,10.0,1111122 
DISL,ioos:station:DISL:DISL:1,2009-01-03T11:30:00Z,30.2513,-88.0778,6.108,9.73,1111122 
DISL,ioos:station:DISL:DISL:1,2009-01-03T12:00:00Z,30.2513,-88.0778,6.112,10.03,1111122 
DISL,ioos:station:DISL:DISL:1,2009-01-03T12:30:00Z,30.2513,-88.0778,6.097,10.09,1111122 
DISL,ioos:station:DISL:DISL:1,2009-01-03T13:00:00Z,30.2513,-88.0778,6.073,10.12,1111122 
DISL,ioos:station:DISL:DISL:1,2009-01-03T13:30:00Z,30.2513,-88.0778,6.058,10.16,1111122 
DISL,ioos:station:DISL:DISL:1,2009-01-03T14:00:00Z,30.2513,-88.0778,6.065,9.95,1111122 
DISL,ioos:station:DISL:DISL:1,2009-01-03T14:30:00Z,30.2513,-88.0778,6.069,10.12,1111122 
DISL,ioos:station:DISL:DISL:1,2009-01-03T15:00:00Z,30.2513,-88.0778,6.056,10.06,1111122 
DISL,ioos:station:DISL:DISL:1,2009-01-03T15:30:00Z,30.2513,-88.0778,6.05,10.19,1111122 
DISL,ioos:station:DISL:DISL:1,2009-01-03T16:00:00Z,30.2513,-88.0778,6.07,10.34,1111122 
DISL,ioos:station:DISL:DISL:1,2009-01-03T16:30:00Z,30.2513,-88.0778,6.082,10.23,1111122 
DISL,ioos:station:DISL:DISL:1,2009-01-03T17:00:00Z,30.2513,-88.0778,6.115,10.25,1111122 
DISL,ioos:station:DISL:DISL:1,2009-01-03T17:30:00Z,30.2513,-88.0778,6.155,9.94,1111122 
DISL,ioos:station:DISL:DISL:1,2009-01-03T18:00:00Z,30.2513,-88.0778,6.133,9.01,1111122 
DISL,ioos:station:DISL:DISL:1,2009-01-03T18:30:00Z,30.2513,-88.0778,6.113,9.18,1111122 
DISL,ioos:station:DISL:DISL:1,2009-01-03T19:00:00Z,30.2513,-88.0778,6.226,8.6,1111122 
DISL,ioos:station:DISL:DISL:1,2009-01-03T19:30:00Z,30.2513,-88.0778,6.223,8.36,1111122 
DISL,ioos:station:DISL:DISL:1,2009-01-03T20:00:00Z,30.2513,-88.0778,6.292,7.63,1111122 
DISL,ioos:station:DISL:DISL:1,2009-01-03T20:30:00Z,30.2513,-88.0778,6.297,7.18,1111122 
DISL,ioos:station:DISL:DISL:1,2009-01-03T21:00:00Z,30.2513,-88.0778,6.42,7.41,1111122 
DISL,ioos:station:DISL:DISL:1,2009-01-03T21:30:00Z,30.2513,-88.0778,6.451,7.57,1111122 
DISL,ioos:station:DISL:DISL:1,2009-01-03T22:00:00Z,30.2513,-88.0778,6.48,8.66,1111122 
DISL,ioos:station:DISL:DISL:1,2009-01-03T22:30:00Z,30.2513,-88.0778,6.546,9.38,1111122 
DISL,ioos:station:DISL:DISL:1,2009-01-03T23:00:00Z,30.2513,-88.0778,6.586,10.22,1111122 
DISL,ioos:station:DISL:DISL:1,2009-01-03T23:30:00Z,30.2513,-88.0778,6.302,10.05,1111122 
DISL,ioos:station:DISL:DISL:1,2009-01-04T00:00:00Z,30.2513,-88.0778,6.429,10.02,1111122 
DISL,ioos:station:DISL:DISL:1,2009-01-04T00:30:00Z,30.2513,-88.0778,6.39,10.06,1111122 
DISL,ioos:station:DISL:DISL:1,2009-01-04T01:00:00Z,30.2513,-88.0778,6.49,9.97,1111122 
DISL,ioos:station:DISL:DISL:1,2009-01-04T01:30:00Z,30.2513,-88.0778,6.562,9.74,1111122 
DISL,ioos:station:DISL:DISL:1,2009-01-04T02:00:00Z,30.2513,-88.0778,6.561,9.66,1111122 
DISL,ioos:station:DISL:DISL:1,2009-01-04T02:30:00Z,30.2513,-88.0778,6.414,10.06,1111122 
DISL,ioos:station:DISL:DISL:1,2009-01-04T03:00:00Z,30.2513,-88.0778,6.382,10.01,1111122 
DISL,ioos:station:DISL:DISL:1,2009-01-04T03:30:00Z,30.2513,-88.0778,6.38,9.99,1111122 
DISL,ioos:station:DISL:DISL:1,2009-01-04T04:00:00Z,30.2513,-88.0778,6.31,10.07,1111122 
DISL,ioos:station:DISL:DISL:1,2009-01-04T04:30:00Z,30.2513,-88.0778,6.152,10.0,1111122 
DISL,ioos:station:DISL:DISL:1,2009-01-04T05:00:00Z,30.2513,-88.0778,6.027,10.0,1111122 
DISL,ioos:station:DISL:DISL:1,2009-01-04T05:30:00Z,30.2513,-88.0778,6.109,10.18,1111122 
DISL,ioos:station:DISL:DISL:1,2009-01-04T06:00:00Z,30.2513,-88.0778,6.099,10.15,1111122 
DISL,ioos:station:DISL:DISL:1,2009-01-04T06:30:00Z,30.2513,-88.0778,6.169,10.29,1111122 
DISL,ioos:station:DISL:DISL:1,2009-01-04T07:00:00Z,30.2513,-88.0778,5.957,9.92,1111122 
DISL,ioos:station:DISL:DISL:1,2009-01-04T07:30:00Z,30.2513,-88.0778,5.903,9.93,1111122 
DISL,ioos:station:DISL:DISL:1,2009-01-04T08:00:00Z,30.2513,-88.0778,5.803,10.24,1111122 
DISL,ioos:station:DISL:DISL:1,2009-01-04T08:30:00Z,30.2513,-88.0778,5.796,10.21,1111122 
DISL,ioos:station:DISL:DISL:1,2009-01-04T09:00:00Z,30.2513,-88.0778,6.018,10.26,1111122 
DISL,ioos:station:DISL:DISL:1,2009-01-04T09:30:00Z,30.2513,-88.0778,5.999,9.83,1111122 
DISL,ioos:station:DISL:DISL:1,2009-01-04T10:00:00Z,30.2513,-88.0778,6.106,9.82,1111122 
DISL,ioos:station:DISL:DISL:1,2009-01-04T10:30:00Z,30.2513,-88.0778,6.093,9.7,1111122 
DISL,ioos:station:DISL:DISL:1,2009-01-04T11:00:00Z,30.2513,-88.0778,6.059,9.88,1111122 
DISL,ioos:station:DISL:DISL:1,2009-01-04T11:30:00Z,30.2513,-88.0778,6.002,9.42,1111122 
DISL,ioos:station:DISL:DISL:1,2009-01-04T12:00:00Z,30.2513,-88.0778,6.14,9.73,1111122 
DISL,ioos:station:DISL:DISL:1,2009-01-04T12:30:00Z,30.2513,-88.0778,5.974,9.64,1111122 
DISL,ioos:station:DISL:DISL:1,2009-01-04T13:00:00Z,30.2513,-88.0778,5.998,10.08,1111122 
DISL,ioos:station:DISL:DISL:1,2009-01-04T13:30:00Z,30.2513,-88.0778,6.062,10.15,1111122 
DISL,ioos:station:DISL:DISL:1,2009-01-04T14:00:00Z,30.2513,-88.0778,6.032,9.54,1111122 
DISL,ioos:station:DISL:DISL:1,2009-01-04T14:30:00Z,30.2513,-88.0778,6.15,9.98,1111122 
DISL,ioos:station:DISL:DISL:1,2009-01-04T15:00:00Z,30.2513,-88.0778,6.122,9.79,1111122 
DISL,ioos:station:DISL:DISL:1,2009-01-04T15:30:00Z,30.2513,-88.0778,6.155,9.49,1111122 
DISL,ioos:station:DISL:DISL:1,2009-01-04T16:00:00Z,30.2513,-88.0778,6.22,9.41,1111122 
DISL,ioos:station:DISL:DISL:1,2009-01-04T16:30:00Z,30.2513,-88.0778,6.232,8.83,1111122 
DISL,ioos:station:DISL:DISL:1,2009-01-04T17:00:00Z,30.2513,-88.0778,6.266,9.47,1111122 
DISL,ioos:station:DISL:DISL:1,2009-01-04T17:30:00Z,30.2513,-88.0778,6.273,9.24,1111122 
DISL,ioos:station:DISL:DISL:1,2009-01-04T18:00:00Z,30.2513,-88.0778,6.387,9.31,1111122 
DISL,ioos:station:DISL:DISL:1,2009-01-04T18:30:00Z,30.2513,-88.0778,6.317,8.64,1111122 
DISL,ioos:station:DISL:DISL:1,2009-01-04T19:00:00Z,30.2513,-88.0778,6.401,8.43,1111122 
DISL,ioos:station:DISL:DISL:1,2009-01-04T19:30:00Z,30.2513,-88.0778,6.375,8.05,1111122 
DISL,ioos:station:DISL:DISL:1,2009-01-04T20:00:00Z,30.2513,-88.0778,6.381,7.93,1111122 
DISL,ioos:station:DISL:DISL:1,2009-01-04T20:30:00Z,30.2513,-88.0778,6.438,8.33,1111122 
DISL,ioos:station:DISL:DISL:1,2009-01-04T21:00:00Z,30.2513,-88.0778,6.544,8.82,1111122 
DISL,ioos:station:DISL:DISL:1,2009-01-04T21:30:00Z,30.2513,-88.0778,6.56,9.12,1111122 
DISL,ioos:station:DISL:DISL:1,2009-01-04T22:00:00Z,30.2513,-88.0778,6.544,9.35,1111122 
DISL,ioos:station:DISL:DISL:1,2009-01-04T22:30:00Z,30.2513,-88.0778,6.504,10.05,1111122 
DISL,ioos:station:DISL:DISL:1,2009-01-04T23:00:00Z,30.2513,-88.0778,6.5,9.36,1111122 
DISL,ioos:station:DISL:DISL:1,2009-01-04T23:30:00Z,30.2513,-88.0778,6.516,10.09,1111122 
DISL,ioos:station:DISL:DISL:1,2009-01-05T00:00:00Z,30.2513,-88.0778,6.472,9.95,1111122 
DISL,ioos:station:DISL:DISL:1,2009-01-05T00:30:00Z,30.2513,-88.0778,6.445,10.05,1111122 
DISL,ioos:station:DISL:DISL:1,2009-01-05T01:00:00Z,30.2513,-88.0778,6.387,10.26,1111122 
DISL,ioos:station:DISL:DISL:1,2009-01-05T01:30:00Z,30.2513,-88.0778,6.327,10.21,1111122 
DISL,ioos:station:DISL:DISL:1,2009-01-05T02:00:00Z,30.2513,-88.0778,6.296,10.99,1111122 
DISL,ioos:station:DISL:DISL:1,2009-01-05T02:30:00Z,30.2513,-88.0778,6.225,10.87,1111122 
DISL,ioos:station:DISL:DISL:1,2009-01-05T03:00:00Z,30.2513,-88.0778,6.196,10.97,1111122 
DISL,ioos:station:DISL:DISL:1,2009-01-05T03:30:00Z,30.2513,-88.0778,6.099,10.95,1111122 
DISL,ioos:station:DISL:DISL:1,2009-01-05T04:00:00Z,30.2513,-88.0778,6.01,10.92,1111122 
DISL,ioos:station:DISL:DISL:1,2009-01-05T04:30:00Z,30.2513,-88.0778,5.966,11.05,1111122 
DISL,ioos:station:DISL:DISL:1,2009-01-05T05:00:00Z,30.2513,-88.0778,5.881,11.06,1111122 
DISL,ioos:station:DISL:DISL:1,2009-01-05T05:30:00Z,30.2513,-88.0778,5.815,11.04,1111122 
DISL,ioos:station:DISL:DISL:1,2009-01-05T06:00:00Z,30.2513,-88.0778,5.748,11.02,1111122 
DISL,ioos:station:DISL:DISL:1,2009-01-05T06:30:00Z,30.2513,-88.0778,5.7,11.03,1111122 
DISL,ioos:station:DISL:DISL:1,2009-01-05T07:00:00Z,30.2513,-88.0778,5.662,10.93,1111122 
DISL,ioos:station:DISL:DISL:1,2009-01-05T07:30:00Z,30.2513,-88.0778,5.618,10.95,1111122 
DISL,ioos:station:DISL:DISL:1,2009-01-05T08:00:00Z,30.2513,-88.0778,5.57,11.06,1111122 
DISL,ioos:station:DISL:DISL:1,2009-01-05T08:30:00Z,30.2513,-88.0778,5.536,11.18,1111122 
DISL,ioos:station:DISL:DISL:1,2009-01-05T09:00:00Z,30.2513,-88.0778,5.529,11.18,1111122 
DISL,ioos:station:DISL:DISL:1,2009-01-05T09:30:00Z,30.2513,-88.0778,5.524,10.9,1111122 
DISL,ioos:station:DISL:DISL:1,2009-01-05T10:00:00Z,30.2513,-88.0778,5.481,10.58,1111122 
DISL,ioos:station:DISL:DISL:1,2009-01-05T10:30:00Z,30.2513,-88.0778,5.492,10.71,1111122 
DISL,ioos:station:DISL:DISL:1,2009-01-05T11:00:00Z,30.2513,-88.0778,5.496,10.73,1111122 
DISL,ioos:station:DISL:DISL:1,2009-01-05T11:30:00Z,30.2513,-88.0778,5.522,11.0,1111122 
DISL,ioos:station:DISL:DISL:1,2009-01-05T12:00:00Z,30.2513,-88.0778,5.559,10.68,1111122 
DISL,ioos:station:DISL:DISL:1,2009-01-05T12:30:00Z,30.2513,-88.0778,5.587,10.13,1111122 
DISL,ioos:station:DISL:DISL:1,2009-01-05T13:00:00Z,30.2513,-88.0778,5.596,9.74,1111122 
DISL,ioos:station:DISL:DISL:1,2009-01-05T13:30:00Z,30.2513,-88.0778,5.635,9.89,1111122 
DISL,ioos:station:DISL:DISL:1,2009-01-05T14:00:00Z,30.2513,-88.0778,5.699,9.69,1111122 
DISL,ioos:station:DISL:DISL:1,2009-01-05T14:30:00Z,30.2513,-88.0778,5.797,9.77,1111122 
DISL,ioos:station:DISL:DISL:1,2009-01-05T15:00:00Z,30.2513,-88.0778,5.84,9.61,1111122 
DISL,ioos:station:DISL:DISL:1,2009-01-05T15:30:00Z,30.2513,-88.0778,5.908,10.17,1111122 
DISL,ioos:station:DISL:DISL:1,2009-01-05T16:00:00Z,30.2513,-88.0778,5.934,10.37,1111122 
DISL,ioos:station:DISL:DISL:1,2009-01-05T16:30:00Z,30.2513,-88.0778,6.043,9.7,1111122 
DISL,ioos:station:DISL:DISL:1,2009-01-05T17:00:00Z,30.2513,-88.0778,6.106,8.96,1111122 
DISL,ioos:station:DISL:DISL:1,2009-01-05T17:30:00Z,30.2513,-88.0778,6.184,8.85,1111122 
DISL,ioos:station:DISL:DISL:1,2009-01-05T18:00:00Z,30.2513,-88.0778,6.26,8.3,1111122 
DISL,ioos:station:DISL:DISL:1,2009-01-05T18:30:00Z,30.2513,-88.0778,6.313,7.83,1111122 
DISL,ioos:station:DISL:DISL:1,2009-01-05T19:00:00Z,30.2513,-88.0778,6.395,7.53,1111122 
DISL,ioos:station:DISL:DISL:1,2009-01-05T19:30:00Z,30.2513,-88.0778,6.494,8.15,1111122 
DISL,ioos:station:DISL:DISL:1,2009-01-05T20:00:00Z,30.2513,-88.0778,6.518,8.46,1111122 
DISL,ioos:station:DISL:DISL:1,2009-01-05T20:30:00Z,30.2513,-88.0778,6.606,8.67,1111122 
DISL,ioos:station:DISL:DISL:1,2009-01-05T21:00:00Z,30.2513,-88.0778,6.659,8.28,1111122 
DISL,ioos:station:DISL:DISL:1,2009-01-05T21:30:00Z,30.2513,-88.0778,6.709,8.49,1111122 
DISL,ioos:station:DISL:DISL:1,2009-01-05T22:00:00Z,30.2513,-88.0778,6.748,9.15,1111122 
DISL,ioos:station:DISL:DISL:1,2009-01-05T22:30:00Z,30.2513,-88.0778,6.834,8.93,1111122 
DISL,ioos:station:DISL:DISL:1,2009-01-05T23:00:00Z,30.2513,-88.0778,6.902,9.39,1111122 
DISL,ioos:station:DISL:DISL:1,2009-01-05T23:30:00Z,30.2513,-88.0778,6.865,9.56,1111122 
DISL,ioos:station:DISL:DISL:1,2009-01-06T00:00:00Z,30.2513,-88.0778,6.856,9.65,1111122 
DISL,ioos:station:DISL:DISL:1,2009-01-06T00:30:00Z,30.2513,-88.0778,6.797,9.72,1111122 
DISL,ioos:station:DISL:DISL:1,2009-01-06T01:00:00Z,30.2513,-88.0778,6.759,9.79,1111122 
DISL,ioos:station:DISL:DISL:1,2009-01-06T01:30:00Z,30.2513,-88.0778,6.761,9.24,1111122 
DISL,ioos:station:DISL:DISL:1,2009-01-06T02:00:00Z,30.2513,-88.0778,6.633,8.82,1111122 
DISL,ioos:station:DISL:DISL:1,2009-01-06T02:30:00Z,30.2513,-88.0778,6.582,9.26,1111122 
DISL,ioos:station:DISL:DISL:1,2009-01-06T03:00:00Z,30.2513,-88.0778,6.483,8.7,1111122 
DISL,ioos:station:DISL:DISL:1,2009-01-06T03:30:00Z,30.2513,-88.0778,6.403,8.76,1111122 
DISL,ioos:station:DISL:DISL:1,2009-01-06T04:00:00Z,30.2513,-88.0778,6.305,8.77,1111122 
DISL,ioos:station:DISL:DISL:1,2009-01-06T04:30:00Z,30.2513,-88.0778,6.2,8.86,1111122 
DISL,ioos:station:DISL:DISL:1,2009-01-06T05:00:00Z,30.2513,-88.0778,6.114,8.91,1111122 
DISL,ioos:station:DISL:DISL:1,2009-01-06T05:30:00Z,30.2513,-88.0778,6.215,8.96,1111122 
DISL,ioos:station:DISL:DISL:1,2009-01-06T06:00:00Z,30.2513,-88.0778,5.987,9.03,1111122 
DISL,ioos:station:DISL:DISL:1,2009-01-06T06:30:00Z,30.2513,-88.0778,5.942,9.23,1111122 
DISL,ioos:station:DISL:DISL:1,2009-01-06T07:00:00Z,30.2513,-88.0778,5.855,9.29,1111122 
DISL,ioos:station:DISL:DISL:1,2009-01-06T07:30:00Z,30.2513,-88.0778,5.792,9.22,1111122 
DISL,ioos:station:DISL:DISL:1,2009-01-06T08:00:00Z,30.2513,-88.0778,5.751,9.31,1111122 
DISL,ioos:station:DISL:DISL:1,2009-01-06T08:30:00Z,30.2513,-88.0778,5.699,9.3,1111122 
DISL,ioos:station:DISL:DISL:1,2009-01-06T09:00:00Z,30.2513,-88.0778,5.599,9.27,1111122 
DISL,ioos:station:DISL:DISL:1,2009-01-06T09:30:00Z,30.2513,-88.0778,5.54,9.69,1111122 
DISL,ioos:station:DISL:DISL:1,2009-01-06T10:00:00Z,30.2513,-88.0778,5.511,9.87,1111122 
DISL,ioos:station:DISL:DISL:1,2009-01-06T10:30:00Z,30.2513,-88.0778,5.493,10.44,1111122 
DISL,ioos:station:DISL:DISL:1,2009-01-06T11:00:00Z,30.2513,-88.0778,5.384,9.99,1111122 
DISL,ioos:station:DISL:DISL:1,2009-01-06T11:30:00Z,30.2513,-88.0778,5.466,9.98,1111122 
DISL,ioos:station:DISL:DISL:1,2009-01-06T12:00:00Z,30.2513,-88.0778,5.479,9.92,1111122 
DISL,ioos:station:DISL:DISL:1,2009-01-06T12:30:00Z,30.2513,-88.0778,5.513,9.47,1111122 
DISL,ioos:station:DISL:DISL:1,2009-01-06T13:00:00Z,30.2513,-88.0778,5.573,9.35,1111122 
DISL,ioos:station:DISL:DISL:1,2009-01-06T13:30:00Z,30.2513,-88.0778,5.646,8.45,1111122 
DISL,ioos:station:DISL:DISL:1,2009-01-06T14:00:00Z,30.2513,-88.0778,5.675,8.46,1111122 
DISL,ioos:station:DISL:DISL:1,2009-01-06T14:30:00Z,30.2513,-88.0778,5.746,8.57,1111122 
DISL,ioos:station:DISL:DISL:1,2009-01-06T15:00:00Z,30.2513,-88.0778,5.801,8.87,1111122 
DISL,ioos:station:DISL:DISL:1,2009-01-06T15:30:00Z,30.2513,-88.0778,5.867,9.06,1111122 
DISL,ioos:station:DISL:DISL:1,2009-01-06T16:00:00Z,30.2513,-88.0778,5.958,9.63,1111122 
DISL,ioos:station:DISL:DISL:1,2009-01-06T16:30:00Z,30.2513,-88.0778,6.033,9.42,1111122 
DISL,ioos:station:DISL:DISL:1,2009-01-06T17:00:00Z,30.2513,-88.0778,6.125,9.19,1111122 
DISL,ioos:station:DISL:DISL:1,2009-01-06T17:30:00Z,30.2513,-88.0778,6.218,8.99,1111122 
DISL,ioos:station:DISL:DISL:1,2009-01-06T18:00:00Z,30.2513,-88.0778,6.361,9.04,1111122 
DISL,ioos:station:DISL:DISL:1,2009-01-06T18:30:00Z,30.2513,-88.0778,6.439,9.05,1111122 
DISL,ioos:station:DISL:DISL:1,2009-01-06T19:00:00Z,30.2513,-88.0778,6.52,9.14,1111122 
DISL,ioos:station:DISL:DISL:1,2009-01-06T19:30:00Z,30.2513,-88.0778,6.687,9.24,1111122 
DISL,ioos:station:DISL:DISL:1,2009-01-06T20:00:00Z,30.2513,-88.0778,6.82,9.14,1111122 
DISL,ioos:station:DISL:DISL:1,2009-01-06T20:30:00Z,30.2513,-88.0778,6.894,9.17,1111122 
DISL,ioos:station:DISL:DISL:1,2009-01-06T21:00:00Z,30.2513,-88.0778,7.05,9.3,1111122 
DISL,ioos:station:DISL:DISL:1,2009-01-06T21:30:00Z,30.2513,-88.0778,7.06,9.22,1111122 